Simultaneous Nadir Overpasses (SNOs) Predictions

Prediction of SNOs between METOP-B and NPP Satellite Orbit:

Table of predicted SNOs for the next 14.0 days since TLE Epoch: 2/23/2014
Index Date (METOP-B) Time (METOP-B) Lat,Lon (METOP-B) SZA (METOP-B ) Date (NPP) Time (NPP) Lat,Lon (NPP) SZA (NPP ) Distance(km) Time Diff (sec)
1 02/23/2014 18:02:22 -72.82, 81.90 97.31 02/23/2014 18:01:52 -72.81, 81.86 97.32 2.26 30
2 02/23/2014 18:53:03 72.80,-110.82 82.66 02/23/2014 18:52:38 72.81,-110.83 82.68 1.05 25
3 02/23/2014 19:43:44 -72.81, 56.53 97.35 02/23/2014 19:43:22 -72.81, 56.48 97.34 1.55 22
4 02/23/2014 20:34:25 72.78,-136.19 82.62 02/23/2014 20:34:08 72.81,-136.21 82.65 3.23 17
5 02/23/2014 21:25:06 -72.79, 31.15 97.39 02/23/2014 21:24:52 -72.81, 31.10 97.36 3.09 14
6 02/23/2014 22:15:47 72.76,-161.57 82.58 02/23/2014 22:15:37 72.76,-161.48 82.57 2.93 10
7 02/23/2014 23:06:28 -72.77, 5.77 97.44 02/23/2014 23:06:21 -72.77, 5.83 97.44 2.03 7
8 02/23/2014 23:57:09 72.75, 173.05 82.53 02/23/2014 23:57:07 72.77, 173.14 82.55 3.55 2
9 02/24/2014 00:47:50 -72.75, -19.61 97.48 02/24/2014 00:47:51 -72.77, -19.55 97.47 2.41 1
10 02/24/2014 01:38:30 72.78, 147.78 82.54 02/24/2014 01:38:37 72.77, 147.76 82.52 1.46 7
11 02/24/2014 02:29:11 -72.79, -44.88 97.48 02/24/2014 02:29:21 -72.77, -44.93 97.49 2.50 10
12 02/24/2014 03:19:52 72.76, 122.40 82.49 02/24/2014 03:20:07 72.77, 122.38 82.50 1.16 15
13 02/24/2014 04:10:33 -72.77, -70.25 97.52 02/24/2014 04:10:51 -72.77, -70.31 97.52 1.73 18
14 02/24/2014 05:01:14 72.74, 97.02 82.45 02/24/2014 05:01:37 72.77, 97.00 82.48 3.29 23
15 02/24/2014 05:51:55 -72.75, -95.63 97.56 02/24/2014 05:52:21 -72.77, -95.69 97.54 3.11 26
16 02/24/2014 06:42:36 72.72, 71.65 82.41 02/24/2014 06:43:06 72.72, 71.73 82.40 2.73 30
17 02/24/2014 07:33:17 -72.73,-121.01 97.60 02/24/2014 07:33:50 -72.73,-120.96 97.62 1.86 33
18 02/24/2014 08:23:58 72.71, 46.27 82.37 02/24/2014 08:24:36 72.73, 46.35 82.37 3.41 38
19 02/24/2014 09:14:39 -72.71,-146.39 97.64 02/24/2014 09:15:20 -72.73,-146.34 97.64 2.15 41
20 02/24/2014 10:05:19 72.74, 21.00 82.37 02/24/2014 10:06:06 72.73, 20.97 82.35 1.53 47
21 02/24/2014 10:56:00 -72.75,-171.66 97.64 02/24/2014 10:56:50 -72.73,-171.72 97.67 2.74 50
22 02/24/2014 11:46:41 72.72, -4.38 82.33 02/24/2014 11:47:36 72.73, -4.41 82.33 1.32 55
23 02/24/2014 12:37:22 -72.73, 162.96 97.68 02/24/2014 12:38:20 -72.73, 162.91 97.69 1.95 58
24 02/24/2014 13:28:03 72.70, -29.76 82.29 02/24/2014 13:29:06 72.73, -29.79 82.30 3.39 63
25 02/24/2014 14:18:44 -72.71, 137.59 97.72 02/24/2014 14:19:50 -72.73, 137.53 97.71 3.18 66
26 02/24/2014 15:09:25 72.68, -55.14 82.25 02/24/2014 15:10:35 72.68, -55.06 82.22 2.51 70
27 02/24/2014 16:00:06 -72.69, 112.21 97.77 02/24/2014 16:01:19 -72.69, 112.25 97.79
